When you browse on this site, cookies collect data to enhance your experience and personalize the content and advertising you see.
Visit our Privacy Policy to learn more. By continuing to use the site, you agree to this use of cookies and data.
  • în România
  • Lista ţărilor
  • Pe 7 zile
  • Temperatura apei
  • Meteo pe hartă
  • Widget-uri
  • user-avatar
    Intrare

    Meteo pe oră la Pontypridd

    Astăzi, 23 Februarie, Duminică

    Timp Temperatura Precipitaţii Vânt Presiune Umiditate
    00:00 +6°C° 0.8 mm 8 m/s 753 mmHg 95%
    01:00 +7°C° 1 mm 10 m/s 752 mmHg 95%
    02:00 +8°C° 1 mm 11 m/s 750 mmHg 95%
    03:00 +8°C° 1 mm 13 m/s 749 mmHg 95%
    04:00 +9°C° 0.1 mm 14 m/s 748 mmHg 94%
    05:00 +9°C° 0.1 mm 14 m/s 748 mmHg 93%
    06:00 +9°C° 0.1 mm 15 m/s 748 mmHg 92%
    07:00 +9°C° 0.5 mm 14 m/s 748 mmHg 92%
    08:00 +9°C° 0.5 mm 13 m/s 749 mmHg 92%
    09:00 +9°C° 0.5 mm 13 m/s 749 mmHg 92%
    10:00 +8°C° 0.2 mm 11 m/s 751 mmHg 90%
    11:00 +8°C° 0.2 mm 10 m/s 752 mmHg 88%
    12:00 +7°C° 0.2 mm 9 m/s 753 mmHg 86%
    13:00 +6°C° 0 mm 8 m/s 753 mmHg 83%
    14:00 +6°C° 0 mm 7 m/s 754 mmHg 80%
    15:00 +7°C° 0 mm 6 m/s 754 mmHg 77%
    16:00 +6°C° 0 mm 5 m/s 755 mmHg 79%
    17:00 +5°C° 0 mm 3 m/s 756 mmHg 80%
    18:00 +5°C° 0 mm 2 m/s 756 mmHg 82%
    19:00 +6°C° 0 mm 1 m/s 756 mmHg 82%
    20:00 +6°C° 0 mm 1 m/s 756 mmHg 82%
    21:00 +6°C° 0 mm 1 m/s 756 mmHg 82%
    22:00 +4°C° 0.2 mm 3 m/s 755 mmHg 84%
    23:00 +4°C° 0.2 mm 4 m/s 755 mmHg 86%

    Mâine, 24 Februarie, Luni

    Timp Temperatura Precipitaţii Vânt Presiune Umiditate
    00:00 +3°C° 0.2 mm 6 m/s 754 mmHg 89%
    01:00 +4°C° 0.6 mm 6 m/s 753 mmHg 92%
    02:00 +5°C° 0.6 mm 5 m/s 752 mmHg 95%
    03:00 +6°C° 0.6 mm 5 m/s 750 mmHg 98%
    04:00 +6°C° 0 mm 7 m/s 749 mmHg 96%
    05:00 +6°C° 0 mm 9 m/s 748 mmHg 95%
    06:00 +7°C° 0 mm 11 m/s 747 mmHg 93%
    07:00 +7°C° 0.9 mm 11 m/s 746 mmHg 93%
    08:00 +7°C° 0.9 mm 12 m/s 746 mmHg 94%
    09:00 +7°C° 0.9 mm 12 m/s 745 mmHg 94%
    10:00 +8°C° 2 mm 13 m/s 744 mmHg 94%
    11:00 +8°C° 2 mm 13 m/s 744 mmHg 94%
    12:00 +8°C° 2 mm 13 m/s 743 mmHg 94%
    13:00 +8°C° 0.5 mm 13 m/s 743 mmHg 92%
    14:00 +7°C° 0.5 mm 12 m/s 743 mmHg 90%
    15:00 +5°C° 0.5 mm 12 m/s 743 mmHg 87%
    16:00 +6°C° 0 mm 11 m/s 743 mmHg 85%
    17:00 +4°C° 0 mm 11 m/s 744 mmHg 83%
    18:00 +3°C° 0 mm 10 m/s 744 mmHg 80%
    19:00 +2°C° 0 mm 10 m/s 745 mmHg 80%
    20:00 +2°C° 0 mm 9 m/s 745 mmHg 81%
    21:00 +2°C° 0 mm 8 m/s 745 mmHg 81%
    22:00 +1°C° 0 mm 8 m/s 745 mmHg 80%
    23:00 +1°C° 0 mm 8 m/s 745 mmHg 80%

    Poimâine, 25 Februarie, Marţi

    Timp Temperatura Precipitaţii Vânt Presiune Umiditate
    00:00 +1°C° 0 mm 8 m/s 745 mmHg 79%
    01:00 +1°C° 0.1 mm 8 m/s 745 mmHg 80%
    02:00 +1°C° 0.1 mm 8 m/s 744 mmHg 80%
    03:00 +1°C° 0.1 mm 8 m/s 744 mmHg 81%
    04:00 +1°C° 0.1 mm 8 m/s 743 mmHg 82%
    05:00 +1°C° 0.1 mm 9 m/s 743 mmHg 83%
    06:00 +1°C° 0.1 mm 9 m/s 743 mmHg 85%
    07:00 +1°C° 0 mm 8 m/s 743 mmHg 82%
    08:00 +1°C° 0 mm 8 m/s 743 mmHg 80%
    09:00 +2°C° 0 mm 7 m/s 742 mmHg 77%
    10:00 +2°C° 0.3 mm 8 m/s 742 mmHg 75%
    11:00 +4°C° 0.3 mm 8 m/s 742 mmHg 73%
    12:00 +3°C° 0.3 mm 9 m/s 741 mmHg 71%
    13:00 +3°C° 0.3 mm 9 m/s 740 mmHg 72%
    14:00 +3°C° 0.3 mm 9 m/s 739 mmHg 74%
    15:00 +3°C° 0.3 mm 9 m/s 739 mmHg 75%
    16:00 +2°C° 1 mm 9 m/s 738 mmHg 76%
    17:00 0°C° 1 mm 10 m/s 738 mmHg 78%
    18:00 -2°C° 1 mm 10 m/s 737 mmHg 79%
    19:00 -2°C° 0.1 mm 10 m/s 737 mmHg 79%
    20:00 -3°C° 0.1 mm 10 m/s 738 mmHg 78%
    21:00 -3°C° 0.1 mm 10 m/s 738 mmHg 78%
    22:00 -3°C° 0.1 mm 10 m/s 738 mmHg 80%
    23:00 -4°C° 0.1 mm 10 m/s 739 mmHg 81%

    26 Februarie, Miercuri

    Timp Temperatura Precipitaţii Vânt Presiune Umiditate
    00:00 -4°C° 0.1 mm 10 m/s 739 mmHg 83%
    01:00 -3°C° 0.2 mm 10 m/s 739 mmHg 82%
    02:00 -3°C° 0.2 mm 11 m/s 740 mmHg 81%
    03:00 -3°C° 0.2 mm 11 m/s 740 mmHg 80%
    04:00 -3°C° 0 mm 11 m/s 741 mmHg 78%
    05:00 -3°C° 0 mm 11 m/s 742 mmHg 76%
    06:00 -2°C° 0 mm 11 m/s 743 mmHg 74%
    07:00 -2°C° 0 mm 11 m/s 744 mmHg 75%
    08:00 -1°C° 0 mm 11 m/s 744 mmHg 75%
    09:00 -1°C° 0 mm 12 m/s 745 mmHg 76%
    10:00 +1°C° 0 mm 11 m/s 746 mmHg 72%
    11:00 +1°C° 0 mm 11 m/s 747 mmHg 69%
    12:00 +2°C° 0 mm 10 m/s 748 mmHg 65%
    13:00 +2°C° 0 mm 10 m/s 748 mmHg 64%
    14:00 +2°C° 0 mm 10 m/s 748 mmHg 63%
    15:00 +2°C° 0 mm 10 m/s 748 mmHg 62%
    16:00 +1°C° 0 mm 8 m/s 749 mmHg 67%
    17:00 0°C° 0 mm 7 m/s 749 mmHg 73%
    18:00 0°C° 0 mm 5 m/s 749 mmHg 79%
    19:00 0°C° 0 mm 5 m/s 749 mmHg 81%
    20:00 0°C° 0 mm 4 m/s 749 mmHg 83%
    21:00 +1°C° 0 mm 3 m/s 749 mmHg 85%
    22:00 0°C° 0.1 mm 4 m/s 748 mmHg 85%
    23:00 +1°C° 0 mm 4 m/s 748 mmHg 85%

    27 Februarie, Joi

    Timp Temperatura Precipitaţii Vânt Presiune Umiditate
    00:00 +1°C° 0 mm 4 m/s 747 mmHg 85%
    01:00 +1°C° 0.3 mm 5 m/s 746 mmHg 88%
    02:00 +1°C° 0.3 mm 6 m/s 744 mmHg 92%
    03:00 0°C° 0.3 mm 7 m/s 743 mmHg 95%
    04:00 +1°C° 1.9 mm 8 m/s 741 mmHg 95%
    05:00 +2°C° 1.9 mm 8 m/s 740 mmHg 96%
    06:00 +2°C° 1.9 mm 8 m/s 738 mmHg 96%
    07:00 +5°C° 1.2 mm 9 m/s 737 mmHg 96%
    08:00 +6°C° 1.2 mm 10 m/s 737 mmHg 95%
    09:00 +8°C° 1.2 mm 11 m/s 736 mmHg 94%
    10:00 +8°C° 0 mm 12 m/s 736 mmHg 91%
    11:00 +8°C° 0 mm 13 m/s 736 mmHg 88%
    12:00 +8°C° 0 mm 13 m/s 737 mmHg 84%
    13:00 +7°C° 0 mm 13 m/s 737 mmHg 83%
    14:00 +7°C° 0 mm 13 m/s 737 mmHg 81%
    15:00 +5°C° 0 mm 13 m/s 737 mmHg 80%
    16:00 +5°C° 0 mm 12 m/s 738 mmHg 80%
    17:00 +4°C° 0 mm 12 m/s 738 mmHg 80%
    18:00 +4°C° 0 mm 11 m/s 738 mmHg 80%
    19:00 +3°C° 0 mm 10 m/s 739 mmHg 80%
    20:00 +3°C° 0 mm 9 m/s 740 mmHg 80%
    21:00 +2°C° 0 mm 9 m/s 740 mmHg 80%
    22:00 +2°C° 0 mm 8 m/s 740 mmHg 80%
    23:00 +3°C° 0 mm 7 m/s 740 mmHg 80%

    28 Februarie, Vineri

    Timp Temperatura Precipitaţii Vânt Presiune Umiditate
    00:00 +2°C° 0 mm 6 m/s 741 mmHg 80%
    01:00 +2°C° 0 mm 5 m/s 740 mmHg 81%
    02:00 +3°C° 0 mm 4 m/s 740 mmHg 82%
    03:00 +3°C° 0 mm 3 m/s 740 mmHg 83%
    04:00 +4°C° 0 mm 2 m/s 740 mmHg 83%
    05:00 +4°C° 0 mm 2 m/s 739 mmHg 83%
    06:00 +5°C° 0 mm 1 m/s 739 mmHg 83%
    07:00 +5°C° 0.1 mm 2 m/s 739 mmHg 85%
    08:00 +5°C° 0.1 mm 2 m/s 738 mmHg 86%
    09:00 +6°C° 0.1 mm 2 m/s 738 mmHg 88%
    10:00 +5°C° 1.1 mm 2 m/s 737 mmHg 91%
    11:00 +5°C° 1.1 mm 2 m/s 736 mmHg 93%
    12:00 +5°C° 1.1 mm 2 m/s 736 mmHg 96%
    13:00 +5°C° 1.2 mm 2 m/s 735 mmHg 95%
    14:00 +5°C° 1.2 mm 2 m/s 734 mmHg 94%
    15:00 +5°C° 1.2 mm 2 m/s 733 mmHg 94%
    16:00 +6°C° 0 mm 1 m/s 733 mmHg 94%
    17:00 +6°C° 0 mm 1 m/s 733 mmHg 95%
    18:00 +6°C° 0 mm 1 m/s 732 mmHg 95%
    19:00 +6°C° 0 mm 1 m/s 732 mmHg 96%
    20:00 +6°C° 0 mm 1 m/s 732 mmHg 96%
    21:00 +6°C° 0 mm 1 m/s 732 mmHg 96%
    22:00 +4°C° 0.6 mm 2 m/s 732 mmHg 96%
    23:00 +3°C° 0.6 mm 3 m/s 732 mmHg 95%
    Arată mai mult